Meteo Giornale » Osservazioni meteo Stati Uniti (USA) » New York City Central Park

ore: 19:51 - Osservazioni Meteo New York City Central Park
Lat. 40° 47' N Lon. 73° 58' W Alt. 47 metri s.l.m.

sereno America/New_York

24 °C

Sereno

Temp. 24 Ore

17 °C

26 °C

Nord

0 Km/h

Dew point 9 °C

Umidità 38 %

Visibilità  10 Km

Il sole sorge alle ore 05:25

Il sole tramonta alle ore 20:33

Data e Ora Cielo e Fenomeni T °C DP °C Um. % Pres. hPa Vis. km Vento km/h
Oggi h: 19:51 sereno Sereno 24 9 38 1019 10 N 0
Oggi h: 18:51 poco_nuvoloso Poco Nuvoloso 25 9 36 1019 10 N 5.5
Oggi h: 17:51 poco_nuvoloso Poco Nuvoloso 25 9 36 1019 10 N 7.4
Oggi h: 16:51 poco_nuvoloso Poco Nuvoloso 26 8 31 1019 10 O 11.1
Oggi h: 15:51 nuvoloso Nuvoloso 24 9 38 1020 10 N 0
Oggi h: 14:51 nuvoloso Nuvoloso 24 9 38 1020 10 N 11.1
Oggi h: 13:51 nuvoloso Nuvoloso 24 9 38 1020 10 O/NO 16.7
Oggi h: 12:51 poco_nuvoloso Poco Nuvoloso 24 9 38 1020 10 O/NO 11.1
Oggi h: 11:51 poco_nuvoloso Poco Nuvoloso 23 9 40 1021 10 N 7.4
Oggi h: 10:51 sereno Sereno 22 9 43 1021 10 N 9.3
Oggi h: 09:51 sereno Sereno 20 11 56 1020 10 N 0
Oggi h: 08:51 sereno Sereno 18 10 59 1021 10 N 11.1
Oggi h: 07:51 sereno Sereno 17 11 67 1020 10 O 13
Oggi h: 06:51 sereno Sereno 17 10 63 1020 10 N 11.1
Oggi h: 05:51 sereno Sereno 17 11 67 1019 10 N 7.4
Oggi h: 04:51 sereno Sereno 17 10 63 1019 10 N 5.5
Oggi h: 03:51 sereno Sereno 17 10 63 1018 10 N 0
Oggi h: 02:51 sereno Sereno 17 10 63 1018 10 O/NO 7.4
Oggi h: 01:51 sereno Sereno 19 9 52 1018 10 N 9.3
Oggi h: 00:51 sereno Sereno 19 9 52 1017 10 N 9.3
Ieri h: 23:51 sereno Sereno 19 11 59 1017 10 N 5.5
Ieri h: 22:51 sereno Sereno 21 10 49 1016 10 N 5.5
Ieri h: 21:51 nuvoloso Nuvoloso 22 8 40 1016 10 N 9.3
Ieri h: 20:51 sereno Sereno 22 8 40 1015 10 N 7.4